[[{"header":{"parameterUnit":"m.s-1","parameterCategory":1,"la1":30.2991,"la2":30.254,"lo1":-89.0895,"lo2":-89.0444,"dy":0.0017,"dx":0.0017,"nx":28,"ny":28,"refTime":"2025-05-28T03:00:00:Z","depth":0,"parameterNumber":2,"parameterNumberName":"U-component_of_WINDS"},"data":[0,0,0,0,0,0,0,0,0,0,0,0,0,0,0,0,0,0,0,0,0,0,0,0,0,0,0,0,0,0,0,0,0,0,0,0,0,0,0,0,0,0,0,0,0,0,0,0,0,0,0,0,0,0,0,0,0,0,0.8082,0.8082,0,0.8123,0.8123,0.8124,0.8138,0.8137,0.8137,0.8137,0.818,0.8181,0.8182,0,0,0,0,0,0,0,0,0,0,0,0,0,0.8014,0.8015,0.8082,0.8082,0.8083,0.8123,0.8123,0.8124,0.8138,0.8137,0.8137,0.8137,0.8179,0.8181,0.8182,0,0,0,0,0,0,0,0,0,0,0,0,0,0.8048,0.8015,0.8081,0.8094,0.8096,0.8123,0.8123,0.8124,0.8138,0.8137,0.8137,0.8137,0.8179,0.8181,0.8183,0.82,0,0,0.8188,0.8189,0,0,0,0,0,0,0,0,0.8046,0.805,0.8092,0.8093,0.8095,0.8125,0.8115,0.815,0.8138,0.8122,0.8137,0.8137,0.8162,0.8165,0.8173,0.8202,0.8204,0.8189,0.819,0.8191,0.8191,0,0,0,0,0,0,0,0.8043,0.8049,0.8098,0.8092,0.8095,0.8098,0.8102,0.8122,0.8143,0.8123,0.8124,0.8129,0.8163,0.8171,0.8174,0.8204,0.8189,0.819,0.8192,0.8192,0.8247,0.8248,0,0,0,0,0,0,0.8039,0.8047,0.8097,0.8099,0.8069,0.8099,0.8104,0.8116,0.8143,0.8146,0.8129,0.8129,0.8168,0.8172,0.8176,0.8197,0.8191,0.8192,0.8194,0.8247,0.8248,0.8248,0,0,0,0,0,0,0.8037,0.8043,0.8095,0.8073,0.808,0.8101,0.8113,0.8117,0.8125,0.8147,0.8151,0.8134,0.8168,0.8173,0.8193,0.8199,0.8193,0.8195,0.8247,0.8247,0.8248,0.824,0,0,0,0,0,0,0.8035,0.8043,0.805,0.8073,0.8081,0.8112,0.8114,0.8118,0.8129,0.813,0.8153,0.8157,0.8168,0.819,0.8195,0.8201,0.8197,0.8246,0.8247,0.8248,0.824,0.824,0.824,0,0,0,0,0,0.8033,0.8046,0.805,0.8056,0.809,0.8112,0.8117,0.813,0.8129,0.8136,0.815,0.8156,0.8197,0.8192,0.8198,0.8205,0.8246,0.8247,0.8248,0.824,0.824,0.824,0,0,0,0,0,0,0.8023,0.805,0.8054,0.8076,0.8091,0.8115,0.8124,0.813,0.8147,0.8147,0.8162,0.8168,0.8186,0.8198,0.8192,0.8222,0.8222,0.8224,0.8214,0.8214,0.8215,0.8211,0.8198,0,0,0,0,0,0.8024,0.8039,0.8061,0.8078,0.8086,0.8103,0.8113,0.8122,0.8139,0.8146,0.8161,0.8178,0.8194,0.8205,0.8222,0.8241,0.8246,0.8249,0.8249,0.8249,0.825,0.826,0.8261,0.825,0.825,0.825,0,0,0.8025,0.8041,0.805,0.8077,0.809,0.8105,0.8109,0.8126,0.8137,0.8149,0.8168,0.818,0.8199,0.8219,0.8228,0.8229,0.8254,0.825,0.825,0.8251,0.8261,0.8262,0.8263,0.8251,0.825,0.825,0,0,0.8034,0.8048,0.8063,0.8076,0.8096,0.8107,0.8111,0.8133,0.8141,0.8161,0.8169,0.8183,0.8212,0.8225,0.8235,0.8248,0.8254,0.8253,0.8254,0.8264,0.8265,0.8266,0.8269,0.8271,0.8254,0.8254,0.8254,0,0.8033,0.8056,0.807,0.8086,0.8097,0.8107,0.8122,0.8134,0.8159,0.8166,0.8166,0.8201,0.8215,0.8237,0.824,0.8249,0.8252,0.825,0.8264,0.8265,0.8266,0.8269,0.8271,0.8254,0.8254,0.8254,0.8254,0,0.8053,0.8069,0.8079,0.8102,0.8114,0.8129,0.8144,0.8155,0.8162,0.8173,0.8193,0.8209,0.8229,0.8235,0.8243,0.8258,0.8258,0.826,0.8261,0.8266,0.827,0.8272,0.8254,0.8254,0.8254,0.8254,0,0,0.8058,0.8087,0.8091,0.81,0.8123,0.8135,0.8151,0.8169,0.8178,0.8194,0.8207,0.823,0.8232,0.8244,0.8253,0.8262,0.8269,0.8263,0.8264,0.8263,0.8287,0.8284,0.8286,0.8273,0.8274,0.8274,0.8285,0,0.807,0.8098,0.8109,0.8131,0.8146,0.8156,0.8169,0.8184,0.8194,0.8208,0.822,0.8236,0.8238,0.8245,0.8254,0.8267,0.8274,0.8266,0.8285,0.8286,0.828,0.8288,0.8285,0.8295,0.8286,0.8287,0.8287,0,0.8088,0.8103,0.8126,0.8146,0.8152,0.8164,0.8181,0.8195,0.8211,0.8218,0.8231,0.8239,0.8255,0.8254,0.8275,0.8269,0.8278,0.8285,0.8286,0.8288,0.8286,0.829,0.8298,0.8299,0.829,0.8289,0.8289,0,0.8088,0.8115,0.8132,0.814,0.8163,0.8171,0.8181,0.8197,0.8207,0.8223,0.8229,0.8247,0.8256,0.8269,0.8281,0.8279,0.8301,0.8302,0.8307,0.8307,0.8311,0.8311,0.8321,0.8317,0.8317,0.8317,0.8317,0,0.8099,0.8113,0.8132,0.8142,0.8158,0.8171,0.8186,0.8196,0.8211,0.8223,0.8233,0.8244,0.826,0.8273,0.8283,0.8299,0.8303,0.8309,0.8312,0.8308,0.8307,0.8314,0.8314,0.8318,0.8318,0.8318,0.8317,0,0.8102,0.8116,0.8135,0.8155,0.816,0.817,0.8187,0.8198,0.8208,0.8224,0.8228,0.8245,0.8261,0.8275,0.8296,0.8303,0.8319,0.8322,0.8313,0.8314,0.8319,0.8318,0.8333,0.8336,0.8331,0.8331,0.8331,0,0.8109,0.8119,0.814,0.8149,0.8159,0.8173,0.8183,0.8196,0.8206,0.8225,0.8233,0.825,0.8264,0.8289,0.8303,0.8319,0.8323,0.8327,0.8325,0.8321,0.8322,0.8321,0.8322,0.8327,0.8327,0.8327,0.8327,0,0.8118,0.8124,0.8138,0.8154,0.8166,0.818,0.8193,0.82,0.8216,0.8226,0.8243,0.8253,0.8275,0.8291,0.8308,0.8319,0.8325,0.8327,0.8329,0.8326,0.832,0.8322,0.8313,0.8327,0.8327,0.8327,0.8327,0.8327,0.8123,0.8132,0.8148,0.8163,0.8175,0.8187,0.8197,0.8209,0.8223,0.8241,0.8248,0.8264,0.828,0.8304,0.8314,0.8327,0.8328,0.8331,0.8332,0.8332,0.8331,0.8318,0.833,0.833,0.833,0.833,0.833,0,0.8132,0.8142,0.8156,0.8175,0.8186,0.8191,0.8206,0.8216,0.823,0.8244,0.8257,0.8275,0.8291,0.8306,0.8322,0.8329,0.8333,0.8333,0.8333,0.8335,0.833,0.8326,0.833,0.833,0.833,0.833,0.833,0.833,0.8138,0.8154,0.8161,0.8183,0.8193,0.8209,0.8217,0.8228,0.8239,0.8259,0.8272,0.8282,0.8296,0.8313,0.8327,0.8331,0.8336,0.8336,0.8341,0.8336,0.8335,0.8335,0.8332,0.8337,0.8337,0.8345,0.8345,0.8345]},{"header":{"parameterUnit":"m.s-1","parameterCategory":1,"la1":30.2991,"la2":30.254,"lo1":-89.0895,"lo2":-89.0444,"dy":0.0017,"dx":0.0017,"nx":28,"ny":28,"refTime":"2025-05-28T03:00:00:Z","depth":0,"parameterNumber":3,"parameterNumberName":"V-component_of_WINDS"},"data":[0,0,0,0,0,0,0,0,0,0,0,0,0,0,0,0,0,0,0,0,0,0,0,0,0,0,0,0,0,0,0,0,0,0,0,0,0,0,0,0,0,0,0,0,0,0,0,0,0,0,0,0,0,0,0,0,0,0,3.6209,3.6209,0,3.6201,3.6201,3.6201,3.6112,3.6109,3.6107,3.6105,3.6097,3.6099,3.6101,0,0,0,0,0,0,0,0,0,0,0,0,0,3.6146,3.6148,3.6209,3.6209,3.6208,3.6201,3.6201,3.6201,3.6112,3.6109,3.6107,3.6104,3.6097,3.6099,3.6101,0,0,0,0,0,0,0,0,0,0,0,0,0,3.6159,3.6148,3.6209,3.6163,3.6159,3.6201,3.6201,3.6201,3.6113,3.6109,3.6106,3.6103,3.6096,3.6099,3.6102,3.6186,0,0,3.611,3.6111,0,0,0,0,0,0,0,0,3.6159,3.6162,3.617,3.6167,3.6162,3.6154,3.6176,3.6196,3.6113,3.613,3.6105,3.6101,3.6119,3.612,3.6126,3.6186,3.6185,3.611,3.6112,3.6113,3.6114,0,0,0,0,0,0,0,3.6158,3.6162,3.6205,3.617,3.6165,3.6143,3.6141,3.6179,3.6144,3.6129,3.6122,3.6122,3.6116,3.6123,3.6125,3.6185,3.611,3.6113,3.6115,3.6116,3.6313,3.6317,0,0,0,0,0,0,3.6163,3.6162,3.6206,3.6205,3.6152,3.6147,3.6145,3.616,3.6143,3.6137,3.6125,3.6118,3.612,3.6121,3.6124,3.6221,3.6113,3.6116,3.6118,3.631,3.6314,3.6318,0,0,0,0,0,0,3.6162,3.6168,3.6206,3.6182,3.6185,3.6152,3.6169,3.6161,3.6168,3.614,3.6134,3.6139,3.6117,3.612,3.6171,3.622,3.6117,3.612,3.6306,3.6311,3.6316,3.6417,0,0,0,0,0,0,3.6161,3.6168,3.62,3.6183,3.6186,3.6254,3.6172,3.6164,3.6173,3.6164,3.6151,3.6146,3.6115,3.6167,3.6174,3.6222,3.6122,3.6301,3.6308,3.6314,3.6409,3.6425,3.6438,0,0,0,0,0,3.6159,3.6229,3.6203,3.6208,3.6226,3.6257,3.6259,3.6221,3.6178,3.6209,3.6191,3.6147,3.6213,3.6173,3.618,3.6229,3.6298,3.6306,3.6314,3.6402,3.6422,3.6438,0,0,0,0,0,0,3.6254,3.6226,3.6196,3.6263,3.6263,3.6242,3.628,3.6243,3.6255,3.6246,3.6199,3.6197,3.6255,3.6247,3.6203,3.631,3.6248,3.6258,3.6313,3.6331,3.6345,3.6346,3.6124,0,0,0,0,0,3.6282,3.631,3.6284,3.6346,3.6347,3.6314,3.6326,3.6297,3.6295,3.6295,3.628,3.628,3.6301,3.6315,3.6333,3.6407,3.6403,3.6445,3.6459,3.6472,3.648,3.6518,3.6536,3.6344,3.6344,3.6344,0,0,3.6342,3.633,3.635,3.6364,3.6361,3.639,3.6315,3.6349,3.637,3.63,3.6347,3.6336,3.6333,3.6396,3.6423,3.6391,3.6532,3.6482,3.6492,3.6494,3.6528,3.6547,3.6563,3.635,3.6349,3.6348,0,0,3.6465,3.6459,3.6509,3.6507,3.6502,3.648,3.6492,3.6476,3.6466,3.6513,3.646,3.6485,3.6522,3.6521,3.6526,3.6648,3.6607,3.6655,3.6732,3.677,3.6785,3.6798,3.6841,3.6857,3.6664,3.6664,3.6665,0,3.6539,3.6581,3.6539,3.6577,3.6584,3.6522,3.6572,3.6572,3.6573,3.658,3.6544,3.6589,3.6582,3.6643,3.6673,3.6679,3.6691,3.6656,3.6786,3.6799,3.681,3.6851,3.6867,3.667,3.6669,3.6669,3.6668,0,3.6672,3.6702,3.6743,3.6746,3.6757,3.6801,3.6766,3.6783,3.6753,3.6734,3.6782,3.6772,3.6786,3.6798,3.677,3.6856,3.6836,3.6794,3.6731,3.6835,3.6872,3.6887,3.6678,3.6676,3.6675,3.6673,0,0,3.6855,3.6833,3.6849,3.6849,3.6839,3.6861,3.6902,3.6915,3.693,3.6933,3.6966,3.6998,3.6959,3.6965,3.6935,3.6968,3.7065,3.6922,3.6921,3.6948,3.7158,3.7189,3.7208,3.7038,3.704,3.7043,3.7158,0,3.6973,3.704,3.7004,3.7076,3.7103,3.7044,3.7079,3.7076,3.706,3.708,3.7061,3.7085,3.7032,3.7035,3.7065,3.7047,3.7106,3.7038,3.7067,3.7069,3.7069,3.7227,3.726,3.737,3.7172,3.7175,3.7177,0,3.7119,3.7128,3.7203,3.7187,3.7197,3.7229,3.7238,3.7258,3.7254,3.7239,3.7245,3.7208,3.7246,3.7184,3.7236,3.719,3.72,3.7193,3.7196,3.7197,3.7129,3.7232,3.7404,3.742,3.7199,3.7197,3.7196,0,3.7244,3.7274,3.7323,3.7325,3.7308,3.7332,3.7326,3.7318,3.7328,3.7336,3.7342,3.7355,3.7362,3.7372,3.7339,3.7297,3.7395,3.7331,3.7384,3.7385,3.7407,3.7406,3.7583,3.7415,3.7415,3.7414,3.7414,0,3.7379,3.7427,3.7378,3.7408,3.746,3.7418,3.747,3.7458,3.7452,3.7478,3.7428,3.7454,3.7409,3.743,3.7404,3.7451,3.7455,3.7444,3.7436,3.7448,3.7449,3.7453,3.7445,3.7419,3.7418,3.7417,3.7416,0,3.7527,3.7496,3.7545,3.7525,3.752,3.756,3.7542,3.7569,3.7548,3.7582,3.7588,3.7556,3.7579,3.7547,3.7566,3.7549,3.7613,3.7594,3.7614,3.7608,3.7663,3.7658,3.7848,3.7871,3.7689,3.7691,3.7693,0,3.7615,3.765,3.7633,3.7647,3.7643,3.7667,3.7676,3.7636,3.7648,3.7646,3.7673,3.7691,3.7703,3.7741,3.772,3.7735,3.7715,3.7781,3.7717,3.7728,3.7716,3.7714,3.7717,3.7794,3.7796,3.7798,3.7799,0,3.7773,3.7756,3.7772,3.7783,3.7796,3.7803,3.7805,3.782,3.7777,3.7793,3.7815,3.7825,3.7844,3.7862,3.7871,3.7865,3.7825,3.782,3.7833,3.7845,3.7855,3.7849,3.7649,3.7815,3.7814,3.7813,3.7812,3.7811,3.7893,3.7922,3.7914,3.7933,3.7931,3.7934,3.7958,3.7941,3.7958,3.797,3.7945,3.7973,3.7968,3.7975,3.7973,3.7995,3.7966,3.7985,3.799,3.7995,3.8003,3.7852,3.7996,3.7996,3.7995,3.7995,3.7995,0,3.8049,3.8041,3.8059,3.8064,3.8079,3.804,3.8041,3.8056,3.8081,3.8079,3.8092,3.8117,3.8135,3.8115,3.8129,3.815,3.8132,3.8155,3.8152,3.8152,3.8028,3.8015,3.8169,3.8169,3.8169,3.8169,3.8169,3.8169,3.8132,3.8177,3.8159,3.8203,3.8194,3.8221,3.8225,3.8228,3.8226,3.8256,3.827,3.8257,3.8247,3.826,3.8274,3.8268,3.8275,3.8305,3.8292,3.8177,3.816,3.8144,3.8131,3.8307,3.8307,3.8413,3.8414,3.8415]}]]